Weather History for Sana, Yemen

Change the Weather History Date:

Sunday, February 17, 2013

  Actual Average Record
Temperature  
Mean Temperature 62 °F -  
Max Temperature 83 °F 76 °F 84 °F (2003)
Min Temperature 41 °F 52 °F 41 °F (2013)
Degree Days  
Heating Degree Days 3    
Growing Degree Days 12 (Base 50)    
Moisture  
Dew Point 16 °F    
Average Humidity 17    
Maximum Humidity 34    
Minimum Humidity 4    
Precipitation  
Precipitation 0.00 in - - ()
Sea Level Pressure  
Sea Level Pressure 30.24 in    
Wind  
Wind Speed 4 mph ()    
Max Wind Speed 17 mph    
Max Gust Speed -    
Visibility 6.1 miles    
Events      
Averages and records for this station are not official NWS values.
T = Trace of Precipitation, MM = Missing Value Source: Averaged Metar Reports

Daily Weather History Graph

Daily Weather History Graph

Search for Another Location

Airport:

Trip Planner

Search our weather history database for the weather conditions in past years. The results will help you decide how hot, cold, wet, or windy it might be!

Date:

Astronomy

Feb. 17, 2013 Rise Set
Actual Time 6:27 AM AST 6:07 PM AST
Civil Twilight 6:05 AM AST 6:29 PM AST
Nautical Twilight 5:39 AM AST 6:54 PM AST
Astronomical Twilight 5:14 AM AST 7:19 PM AST
Moon 11:16 AM AST (2/17) No Moon Set
Length of Visible Light 12h 24m
Length of Day
11h 40m
Waxing Crescent, 45% of the Moon is Illuminated
Feb 17
Waxing Crescent
Feb 17
First Quarter
Feb 25
Full
Mar 5
Last Quarter
Mar 11
New

Hourly Weather History & Observations

Time (AST) Temp. Windchill Dew Point Humidity Pressure Visibility Wind Dir Wind Speed Gust Speed Precip Events Conditions
12:00 AM 54 °F - 20 °F 15%  in 6 mi 2.3 mph - -  
12:00 AM 53.6 °F - 19.4 °F 26% 30.30 in - Variable 2.3 mph - N/A   Clear
1:00 AM 50.0 °F - 19.4 °F 30% 30.27 in - West 4.6 mph - N/A   Clear
2:00 AM 51.8 °F - 19.4 °F 28% 30.27 in - Variable 2.3 mph - N/A   Clear
3:00 AM 49 °F - 18 °F 18%  in 6 mi West 3.5 mph - -  
3:00 AM 48.2 °F - 19.4 °F 32% 30.24 in - West 3.5 mph - N/A   Clear
4:00 AM 48.2 °F - 19.4 °F 32% 30.24 in - SSW 3.5 mph - N/A   Clear
5:00 AM 44.6 °F 43.1 °F 17.6 °F 34% 30.24 in - WSW 3.5 mph - N/A   Clear
6:00 AM 44 °F - 17 °F 21%  in 6 mi West 3.5 mph - -  
6:00 AM 44.6 °F 43.1 °F 17.6 °F 34% 30.27 in - West 3.5 mph - N/A   Clear
7:00 AM 44.6 °F - 15.8 °F 31% 30.27 in - Variable 1.2 mph - N/A   Clear
8:00 AM 53.6 °F - 17.6 °F 24% 30.27 in - Variable 2.3 mph - N/A   Clear
9:00 AM 60 °F - 26 °F 16%  in 6 mi Calm Calm - -  
9:00 AM 60.8 °F - 26.6 °F 27% 30.30 in - Calm Calm - N/A   Clear
10:00 AM 68.0 °F - 21.2 °F 17% 30.30 in - Calm Calm - N/A   Clear
11:00 AM 71.6 °F - 19.4 °F 14% 30.27 in - Calm Calm - N/A   Clear
12:00 PM 76 °F - 11 °F 4%  in 6 mi NE 4.6 mph - -  
12:00 PM 77.0 °F - 10.4 °F 8% 30.24 in - NE 4.6 mph - N/A   Clear
1:00 PM 78.8 °F - 3.2 °F 5% 30.21 in 6.2 mi Calm Calm - N/A   Partly Cloudy
2:00 PM 80.6 °F - 3.2 °F 5% 30.18 in 6.2 mi NNW 6.9 mph - N/A   Partly Cloudy
3:00 PM 81 °F - 7 °F 4%  in 6 mi NNE 10.4 mph - -   Scattered Clouds
3:00 PM 80.6 °F - 6.8 °F 6% 30.15 in 6.2 mi NNE 10.4 mph - N/A   Partly Cloudy
4:00 PM 80.6 °F - 6.8 °F 6% 30.15 in 6.2 mi NE 12.7 mph - N/A   Partly Cloudy
5:00 PM 77.0 °F - 14.0 °F 9% 30.18 in 6.2 mi NNE 17.3 mph - N/A   Partly Cloudy
6:00 PM 72 °F - 15 °F 5%  in 6 mi NNE 11.5 mph - -   Scattered Clouds
6:00 PM 71.6 °F - 15.8 °F 12% 30.21 in 6.2 mi NNE 11.5 mph - N/A   Partly Cloudy
7:00 PM 68.0 °F - 15.8 °F 13% 30.24 in - NNE 5.8 mph - N/A   Clear
8:00 PM 66.2 °F - 17.6 °F 15% 30.24 in - Calm Calm - N/A   Clear
9:00 PM 64 °F - 23 °F 11%  in 6 mi NNE 5.8 mph - -  
9:00 PM 64.4 °F - 23.0 °F 21% 30.24 in - NNE 5.8 mph - N/A   Clear
10:00 PM 60.8 °F - 14.0 °F 16% 30.27 in - Calm Calm - N/A   Clear
11:00 PM 60.8 °F - 14.0 °F 16% 30.27 in - Variable 2.3 mph - N/A   Clear